Вернуться в каталог

STARLINK-11280

АктивенСвязьVLEO
NORAD 61245·PAYLOAD·🇺🇸 United States

Запущен Sep 25, 2024 с Vandenberg Space Force Base

Loading…

Ближайшие Пролёты (ближайшие 24 часа)

TLE

СвежийSource: CelesTrak SupGP

Эпоха: Sep 14, 2026, 22:17 UTC

1 61245C 24175C   26257.92895833  .00032133  00000+0  26449-3 0  2572
2 61245  53.1571 203.2450 0001182 104.8766 147.9486 15.69711672    17

Отслеживайте STARLINK-11280 в реальном времени с AllMySat

Download on the App Store